Location: Oberwangen
(47.4286°N, 8.9679°E)
Time: 06:31:30
(UTC+00:00)

Cosmos 1869 - Pass Details

Date: 20 June 2021
Orbit: 518 x 562 km, 82.5° (Epoch: 28 July)

Event Time Altitude Azimuth Distance (km) Brightness Sun altitude
Rises 23:30:51 0° 353° (N) 2,767 8.5 -19.1°
Reaches altitude 10° 23:33:04 10° 357° (N) 1,864 7.3 -19.1°
Maximum altitude 23:37:09 64° 78° (ENE) 626 3.6 -19.1°
Enters shadow 23:38:23 41° 142° (SE) 817 3.8 -19.1°
